RH
16 13 9 11 13 13 11 13 21 31 53 86 94 92 93 92 93 94 79 63 61 71 77 79 72 71 54 57 67 72 72 78 71 58 59 54 54 52 51 55 55 51 44
14 18 17 14 12 12 10 9 11 17 24 30 62 88 88 84 81 85 81 71 77 76 65 59 62 60 56 72 76 69 78 75 72 57 48 34 33 39 38 33 32 34 46
18 13 15 18 20 26 29 26 20 11 13 20 27 36 42 59 74 67 65 71 68 69 66 71 41 45 50 73 88 76 66 70 62 52 41 45 45 45 47 41 64 65 67
28 19 13 16 16 15 19 26 38 32 19 12 14 21 28 32 42 35 38 59 53 45 45 38 37 56 70 74 72 65 61 54 50 50 60 72 78 67 56 62 47 39 44
33 23 18 16 18 19 18 17 25 31 32 27 19 13 22 29 36 38 35 36 38 46 45 40 53 54 42 51 53 54 32 33 37 39 44 54 63 62 46 34 32 14 14
37 42 36 24 26 26 25 23 20 21 23 25 27 28 18 22 31 35 37 39 41 36 37 42 32 28 28 45 53 44 37 36 49 55 68 74 66 58 36 22 10 7 8
51 49 55 37 33 32 27 31 29 24 20 22 27 29 33 34 21 27 32 35 38 38 38 40 45 32 38 56 51 40 39 31 34 29 36 57 63 48 26 18 11 8 10
59 50 57 48 36 33 32 32 38 41 37 30 20 20 26 31 35 32 24 28 30 31 35 40 44 43 40 34 28 23 21 20 26 35 27 52 59 29 20 15 9 7 7
85 75 61 58 51 50 42 45 41 39 44 46 46 34 19 14 19 19 25 32 34 38 36 39 41 41 39 31 24 23 19 24 50 41 41 62 61 26 16 8 6 6 6
95 82 71 57 78 63 57 57 55 53 50 40 53 40 29 30 27 22 22 35 49 44 41 40 35 32 27 22 26 28 28 63 68 40 42 62 41 23 12 8 6 7 8
94 86 87 82 76 52 56 60 60 54 41 42 50 63 84 86 78 82 83 76 37 55 58 49 41 33 27 27 35 39 48 66 71 65 69 73 37 20 10 7 9 20 16
90 93 92 92 83 76 72 68 79 65 61 67 89 96 95 96 89 87 74 76 93 89 68 51 44 38 35 36 41 59 69 68 56 52 59 64 25 11 10 19 47 48 37
90 89 95 92 97 100 72 78 72 67 71 76 80 96 96 94 94 69 54 47 46 64 84 95 93 78 74 47 64 81 69 64 57 48 48 38 18 12 13 26 58 60 48
92 95 92 90 93 97 84 83 84 71 60 81 88 91 89 88 67 55 46 42 40 50 60 74 90 88 86 85 80 78 90 78 46 42 55 36 14 14 14 33 21 13 13
94 98 97 96 94 98 88 86 81 68 52 46 45 49 59 62 64 60 45 39 35 44 63 66 62 95 83 92 96 84 78 45 41 69 70 22 14 16 16 15 14 13 12
75 85 86 88 97 96 97 88 76 74 67 44 41 52 64 50 50 70 74 43 40 50 67 75 92 91 93 88 56 43 37 43 44 42 26 18 13 17 16 15 13 14 13
60 80 79 73 80 74 95 100 98 88 84 82 56 56 59 74 67 74 51 40 42 49 58 53 58 53 48 47 45 54 58 66 59 25 20 14 11 13 12 12 13 15 15
34 51 69 66 65 73 82 85 78 92 96 96 85 75 85 86 76 57 41 38 39 43 46 47 45 43 46 47 58 58 63 54 27 19 15 12 12 12 12 15 19 19 16
42 62 59 61 63 66 64 64 57 73 73 54 81 79 74 65 59 50 36 35 36 39 40 41 49 42 40 38 48 57 38 29 18 16 15 14 14 13 14 16 20 20 16
28 36 65 80 77 64 55 48 47 46 47 66 61 67 74 65 55 46 34 34 33 35 36 37 39 44 44 38 37 48 44 47 32 16 15 17 16 16 16 18 21 22 16
21 32 54 56 60 62 59 50 41 42 43 44 39 39 43 42 44 51 44 31 27 28 32 30 26 28 36 48 43 35 53 61 63 62 38 18 16 17 24 24 25 24 16
52 21 28 33 35 35 38 39 39 35 28 26 30 34 27 24 26 32 27 21 17 16 21 28 27 24 32 40 35 36 34 51 61 68 70 72 29 17 20 24 24 23 18
58 54 55 24 18 20 24 25 24 20 18 25 29 25 19 14 12 12 12 15 14 11 11 15 20 25 26 38 39 36 31 33 37 45 49 70 44 20 19 19 17 18 24
65 55 49 42 22 37 40 34 18 14 13 14 13 13 14 16 15 12 11 12 13 11 10 12 17 19 19 29 44 46 39 35 35 42 65 84 47 31 28 26 24 23 26
48 53 61 63 67 42 48 90 62 54 33 13 13 13 24 9 8 8 16 32 38 37 31 14 14 19 22 25 35 48 53 47 43 39 44 84 52 36 37 42 44 40 35
92 95 91 96 97 94 80 71 63 48 37 35 35 38 32 39 22 32 22 23 44 44 48 41 39 48 68 74 66 57 67 58 50 43 68 72 63 53 40 40 46 57 53
Wind_Speed
10 9 8 7 7 7 7 8 9 12 12 9 7 6 10 18 22 16 15 17 17 17 16 18 18 18 18 18 17 17 15 16 19 18 16 12 15 15 16 15 18 21 21
10 11 10 7 8 8 8 7 9 9 11 12 12 12 13 14 15 15 18 19 19 19 19 20 20 19 19 18 18 17 17 16 17 20 20 19 17 15 16 17 18 21 23
8 10 12 11 9 8 8 7 6 6 10 11 13 15 17 17 18 19 21 21 21 23 21 24 22 21 20 20 19 19 18 18 17 20 21 21 22 21 22 22 23 27 26
11 11 12 13 10 9 9 10 9 9 7 10 12 14 16 18 19 21 22 23 24 23 22 21 21 20 20 20 20 20 20 19 19 19 21 21 22 23 24 23 27 31 31
15 12 12 13 11 8 7 8 10 10 11 11 10 12 14 16 18 19 20 21 20 20 19 18 20 20 20 20 21 21 19 20 21 19 20 22 27 28 29 29 30 30 32
17 14 13 13 10 9 8 8 7 10 11 13 14 13 13 15 16 16 16 17 17 18 19 18 20 21 20 19 20 20 19 17 20 21 20 23 25 28 31 32 31 32 33
21 21 18 17 14 13 13 10 9 10 13 14 15 16 16 16 17 18 18 18 17 19 22 21 21 20 19 20 20 22 21 19 22 22 24 26 26 31 29 30 32 33 34
23 25 23 22 22 21 19 17 15 15 13 14 17 17 18 19 19 19 21 22 21 21 23 23 22 22 21 23 23 25 25 24 25 25 27 28 30 31 34 35 36 35 38
29 25 26 29 28 28 25 23 22 23 23 21 19 18 19 20 21 21 23 25 26 26 25 25 25 25 27 28 28 27 26 27 27 28 28 29 31 33 35 35 35 36 40
34 34 33 31 28 31 31 32 32 31 31 28 26 24 22 23 24 27 27 26 27 29 28 29 29 31 31 31 31 31 30 30 29 29 29 31 32 32 32 35 34 35 35
39 36 37 36 34 35 37 35 36 38 37 35 34 32 31 30 25 25 30 34 32 27 26 31 34 35 35 34 34 34 32 32 31 34 33 35 32 30 32 31 32 30 28
40 44 45 45 42 42 39 38 36 38 39 40 38 37 32 35 31 22 33 42 23 24 27 31 35 36 38 40 39 37 36 35 34 36 35 31 29 28 28 26 26 27 25
47 48 48 47 45 47 43 42 41 41 42 45 52 35 23 19 19 27 34 31 30 34 34 35 36 40 42 43 42 43 42 38 37 35 34 29 27 27 25 21 19 21 24
53 54 54 55 52 51 52 48 46 48 45 47 47 49 36 31 31 34 36 34 35 31 31 38 37 41 44 44 46 46 46 45 38 37 28 25 23 23 17 14 13 15 18
59 59 59 62 59 57 59 58 56 57 55 50 51 48 42 40 38 38 38 37 37 33 32 33 44 44 40 40 40 42 44 45 33 27 23 22 21 16 15 13 14 19 19
62 56 59 61 60 60 64 62 62 61 60 57 53 50 48 43 45 47 47 40 35 25 21 23 16 15 22 29 35 39 49 48 40 25 21 24 19 17 17 16 16 18 22
57 53 55 57 60 61 68 64 62 64 68 67 62 57 57 55 53 47 40 38 31 23 20 18 23 15 21 23 30 30 21 12 19 23 21 25 19 17 17 17 16 21 25
52 51 49 53 56 57 56 50 51 55 37 68 68 60 57 55 47 46 39 37 31 29 25 26 25 23 24 27 26 17 15 17 17 20 23 23 19 18 18 18 18 23 25
48 48 46 45 43 45 45 51 49 47 45 38 41 61 67 64 52 42 40 35 32 32 29 31 31 27 29 28 24 21 19 19 20 23 24 23 22 22 21 22 22 24 26
43 45 48 44 47 47 45 45 44 45 42 33 31 33 40 42 45 42 38 36 34 33 33 32 33 33 31 30 26 26 24 24 22 24 24 24 24 24 25 25 26 25 27
39 43 45 46 44 44 46 47 48 44 44 42 39 39 41 39 41 47 45 44 40 40 38 36 36 34 35 33 33 31 31 31 26 27 25 27 27 27 27 27 29 29 27
31 35 39 42 44 45 46 48 47 47 47 45 40 38 41 44 48 50 49 46 47 46 47 45 42 39 36 36 38 36 32 33 35 29 27 30 31 29 29 30 31 31 28
25 28 31 36 41 42 42 43 43 44 44 44 42 40 40 42 44 46 47 46 49 49 50 49 50 48 43 42 40 40 39 37 38 33 31 32 32 31 29 30 29 28 27
22 23 26 28 31 34 34 34 36 39 43 44 42 42 41 40 42 42 43 47 50 53 53 54 53 52 51 48 48 46 45 42 40 36 33 33 33 32 31 28 30 28 27
23 24 26 26 27 27 30 34 34 35 36 35 34 35 35 36 38 42 46 47 48 50 53 55 55 53 53 53 49 49 48 47 43 41 37 34 33 33 31 32 29 31 29
23 24 25 23 21 28 31 38 38 36 33 31 32 34 33 31 34 37 43 47 53 50 50 51 52 50 48 48 49 51 49 48 46 42 39 38 35 34 34 35 33 32 30
Wind_Direction
263 263 247 232 236 245 252 239 237 240 249 249 241 181 201 220 230 238 252 250 241 248 256 262 269 274 280 285 285 286 282 283 287 286 280 291 289 288 294 296 294 289 291
250 249 257 247 236 251 265 258 254 249 251 250 241 231 225 230 232 238 244 244 247 252 257 262 265 270 277 281 286 284 285 282 287 294 299 299 294 294 294 294 294 290 295
260 254 249 252 249 239 251 275 280 259 256 255 250 245 246 245 242 242 241 241 243 251 249 259 263 265 267 274 281 281 284 287 293 297 303 303 304 310 311 308 311 310 304
246 244 246 240 233 249 255 259 266 279 267 258 256 251 246 246 244 250 249 249 254 255 255 255 256 257 263 271 277 282 285 295 301 301 301 305 308 314 316 310 306 306 305
228 231 231 227 226 231 245 253 267 264 279 283 272 260 251 247 251 253 253 255 258 258 260 257 258 261 266 271 276 281 286 291 292 296 299 297 298 307 306 304 304 299 296
217 213 211 218 213 227 236 250 249 269 271 275 277 277 269 259 257 258 261 264 267 268 268 268 268 271 271 272 274 279 279 286 291 292 293 295 299 298 300 300 302 299 297
230 220 230 232 229 232 240 250 264 255 258 265 269 275 277 274 266 263 264 266 269 276 277 277 275 273 272 271 273 274 273 269 269 277 282 286 290 291 290 295 295 297 294
241 234 230 236 244 249 247 248 255 261 265 265 262 262 264 267 269 268 266 264 264 269 273 276 275 274 273 272 269 270 276 282 282 283 283 287 291 296 297 300 301 302 298
247 243 246 245 242 250 255 257 257 258 264 268 276 275 268 267 265 260 261 266 265 265 265 264 264 268 270 270 269 271 273 274 277 283 284 286 288 290 295 300 301 300 302
230 242 247 247 248 253 255 257 261 264 265 268 271 273 272 270 267 266 265 263 266 267 264 261 261 262 264 265 270 277 283 284 284 281 282 285 289 292 296 296 300 301 301
244 244 249 253 255 256 256 258 259 261 269 272 266 261 260 256 258 263 266 262 254 251 262 272 274 274 271 269 268 272 271 273 279 280 281 281 284 290 292 295 300 303 303
242 249 252 248 249 253 253 254 258 264 267 265 263 253 246 244 243 269 286 301 277 271 267 265 266 267 268 271 276 276 276 277 285 287 289 277 281 285 289 297 303 305 308
243 246 248 254 251 256 257 249 251 256 262 265 264 261 288 309 310 293 300 300 299 288 274 271 271 261 263 267 272 275 276 278 285 284 284 275 280 283 286 293 296 304 308
251 246 244 247 250 252 253 253 255 256 260 265 271 283 288 293 291 291 291 294 289 286 293 284 269 271 255 257 262 270 272 276 284 291 263 268 275 285 293 295 311 316 315
248 250 253 248 246 250 251 253 253 256 261 263 267 274 276 279 285 288 286 284 282 287 302 305 289 258 250 252 260 271 270 270 275 284 255 264 266 284 288 303 310 307 305
249 249 250 251 250 245 249 251 256 259 263 269 270 269 273 278 282 281 283 278 277 286 309 316 294 219 256 256 260 276 277 271 264 259 250 256 258 275 286 293 297 294 298
256 254 253 250 252 252 251 254 256 259 260 260 263 270 271 268 273 283 271 265 269 265 268 276 286 266 260 260 275 279 277 242 234 246 253 251 255 267 278 286 291 294 298
249 250 251 254 257 254 249 252 260 256 270 243 256 263 266 261 270 272 260 260 258 257 252 258 265 268 267 267 272 263 245 241 246 254 254 253 254 262 271 277 288 298 305
247 248 246 243 244 249 249 252 261 262 266 269 263 259 260 262 260 253 254 251 259 255 250 251 257 257 258 261 269 254 250 252 250 249 252 254 259 264 267 272 279 294 304
252 247 246 243 241 240 245 254 254 261 261 249 256 250 252 252 246 246 251 250 253 256 257 254 258 252 256 261 267 255 246 247 252 252 253 258 260 264 269 273 279 289 298
251 252 246 248 246 246 246 248 252 254 256 254 250 244 242 247 248 248 249 253 251 251 254 256 256 260 257 260 260 261 253 255 255 260 261 264 261 262 268 275 278 284 289
251 247 246 247 248 247 247 248 249 253 256 257 252 247 245 245 245 246 250 250 251 249 246 249 254 255 257 252 256 263 263 260 258 260 268 267 264 263 266 270 275 280 285
253 244 244 244 246 246 246 249 252 255 256 260 261 255 248 244 243 242 243 243 244 246 245 245 247 250 253 249 252 256 259 260 263 263 263 268 261 262 264 270 274 278 282
255 246 245 244 245 247 249 248 249 250 251 251 253 254 252 246 243 240 239 238 240 241 241 243 246 248 247 249 249 253 255 257 256 258 260 262 260 267 271 271 274 276 277
266 261 260 261 261 260 254 253 251 253 253 249 248 250 248 245 245 240 238 239 237 240 243 243 246 247 247 247 248 248 250 252 255 256 258 254 252 259 265 272 276 278 277
295 252 263 254 262 261 254 252 256 257 257 259 258 256 253 245 241 233 235 235 239 238 240 241 243 245 248 250 252 250 246 247 250 254 255 253 251 254 256 262 264 266 267